Miscellaneous Local Product
Issued by NWS Hastings, NE

Home | Current Version | Previous Version | Text Only | Print | Product List | Glossary On
Versions: 1 2 3 4 5 6 7 8 9 10 11 12 13 14 15 16 17 18 19 20 21 22 23 24 25 26 27 28 29 30 31 32 33 34 35 36 37 38 39 40 41 42 43 44 45 46 47 48 49 50
000
AXUS43 KGID 062002
MISGRI

GID CWA HOURLY WEATHER ROUNDUP
NATIONAL WEATHER SERVICE HASTINGS NE
200 PM CST FRI MAR 06 2015

NOTE: "FAIR" INDICATES FEW OR NO CLOUDS BELOW 12,000 FEET WITH NO
SIGNIFICANT WEATHER AND/OR OBSTRUCTIONS TO VISIBILITY.

...SOUTH CENTRAL NEBRASKA...

CITY           SKY/WX    TMP DP  RH WIND       PRES   REMARKS
GRAND ISLAND   SUNNY     61  15  16 W14G25    30.16F
HASTINGS       SUNNY     60  11  14 W14G24    30.17F
KEARNEY        SUNNY     59  19  21 W12G17    30.17F
ORD            SUNNY     60  13  15 NW15G23   30.13F
YORK           SUNNY     59  14  17 W15       30.16F
AURORA         SUNNY     60  14  16 W15G21    30.17F
LEXINGTON      SUNNY     61  17  18 NW21      30.18F
HOLDREGE       SUNNY     59  18  20 NW14G20   30.19F
HEBRON         SUNNY     61   8  12 W10G17    30.19F

...NEBRASKA PANHANDLE...

CITY           SKY/WX    TMP DP  RH WIND       PRES   REMARKS
CHADRON        PTSUNNY   51  24  34 W21       30.19
ALLIANCE       SUNNY     57  14  18 NW15G28   30.18
SCOTTSBLUFF    SUNNY     57  16  20 W18G24    30.21
SIDNEY         SUNNY     57  16  20 NW14G22   30.23

...WESTERN AND NORTH CENTRAL NEBRASKA...

CITY           SKY/WX    TMP DP  RH WIND       PRES   REMARKS
VALENTINE      MOSUNNY   57  17  21 W16G25    30.12
AINSWORTH      MOSUNNY   57  15  18 W9G24     30.12F
ONEILL         SUNNY     59  16  18 W13G21    30.13F
BROKEN BOW     SUNNY     62  19  19 W20G28    30.15
IMPERIAL         N/A     60  14  16 W10G18    30.21
NORTH PLATTE   SUNNY     61  16  17 W14G25    30.18
MCCOOK         SUNNY     63  17  17 W15       30.21

...EASTERN NEBRASKA...

CITY           SKY/WX    TMP DP  RH WIND       PRES   REMARKS
NORFOLK        SUNNY     61  17  18 W13       30.11F
SO SIOUX CITY  PTSUNNY   60  18  19 NW22G29   30.08
TEKAMAH        MOSUNNY   63  19  18 W18G25    30.10
COLUMBUS       SUNNY     63  18  17 W13       30.15F
ALBION         SUNNY     60  10  14 NW12G18   30.13F
OMAHA EPPLEY   MOSUNNY   60  19  20 SW10      30.13
OFFUTT AFB     SUNNY     60  19  20 SW13G22   30.14F
MILLARD        SUNNY     60  18  20 W14G21    30.15F
LINCOLN        SUNNY     62  16  16 SW14      30.17
NEBRASKA CITY  SUNNY     61   2   9 W17G29    30.17F
BEATRICE       SUNNY     60  17  19 W16       30.19F
FALLS CITY     SUNNY     61  17  18 W13       30.20

...NORTHERN KANSAS...

CITY           SKY/WX    TMP DP  RH WIND       PRES   REMARKS
GOODLAND       SUNNY     59  15  18 W14G24    30.25
HILL CITY      SUNNY     64  15  15 W15G25    30.22
NORTON         CLEAR     61   7  11 W17G24    30.20F
PHILLIPSBURG   SUNNY     64  16  15 W14G21    30.21F
SMITH CENTER   SUNNY     61  18  18 W14G25    30.21F
BELOIT         SUNNY     64  16  15 W16G24    30.21F
HAYS           SUNNY     63  16  16 W10       30.24F
RUSSELL        SUNNY     64  15  15 W15G24    30.22
CONCORDIA      SUNNY     62  17  17 W22       30.21
SALINA         SUNNY     65  15  14 W14G23    30.24
TOPEKA         SUNNY     59  22  24 W12G22    30.25



USA.gov is the U.S. government's official web portal to all federal, state and local government web resources and services.